AirNav   Duncan Aviation - Near you to keep you flying
 
 1368 users online  

5Y3 Gutzmer's Twin Oaks Airport
Whitewater, Wisconsin, USA

GOING TO WHITEWATER?


FAA INFORMATION EFFECTIVE 03 NOVEMBER 2022

Location

FAA Identifier: 5Y3
Lat/Long: 42-51-12.8000N 088-45-35.3000W
42-51.213333N 088-45.588333W
42.8535556,-88.7598056
(estimated)
Elevation: 821 ft. / 250 m (estimated)
Variation: 00W (1985)
From city: 1 mile NW of WHITEWATER, WI
Time zone: UTC -6 (UTC -5 during Daylight Saving Time)
Zip code: 53190

Airport Operations

Airport use: Open to the public
Control tower: no
ARTCC: CHICAGO CENTER
FSS: GREEN BAY FLIGHT SERVICE STATION
NOTAMs facility: GRB (NOTAM-D service available)
Attendance: APR-NOV 0800-SS
Pattern altitude: 1621 ft. MSL
Wind indicator: yes
Segmented circle: no
Lights: SS-SR

Airport Communications

CTAF: 122.9
WX AWOS-3PT at 57C (17 nm E): 118.125 (262-642-1845)
WX AWOS-3 at JVL (19 nm SW): PHONE 608-758-1723
WX AWOS-3 at RYV (19 nm N): 119.975 (920-261-0734)

Nearby radio navigation aids

VOR radial/distance  VOR name  Freq  Var
JVLr038/23.4JANESVILLE VOR/DME114.3003E
BAEr231/26.2BADGER VOR/DME116.4002E
MSNr121/30.9MADISON VORTAC108.6003E

 
NDB name  Hdg/Dist  Freq  Var  ID
ROCK RIVER186/19.337101WRYV .-. -.-- ...-

Airport Services

Parking: tiedowns
Airframe service: NONE
Powerplant service: NONE
Bottled oxygen: NONE
Bulk oxygen: NONE

Runway Information

Runway 18/36

Dimensions: 2523 x 140 ft. / 769 x 43 m
Surface: turf, in good condition
Runway edge lights: non-standard
NSTD LIRL; LGTS FLUSH MOUNTED
Runway edge markings: MKD WITH YELLOW CONES.
RUNWAY 18  RUNWAY 36
Latitude: 42-51.420937N42-51.005545N
Longitude: 088-45.589023W088-45.588268W
Elevation: 800.6 ft.821.0 ft.
Traffic pattern: leftleft
Runway heading: 180 magnetic, 180 true000 magnetic, 360 true
Runway end identifier lights: nono
Touchdown point: yes, no lightsyes, no lights
Obstructions: none
APCH RATIO 20:1 TO DTHR.
56 ft. tree, 845 ft. from runway, 130 ft. right of centerline, 15:1 slope to clear

Airport Ownership and Management from official FAA records

Ownership: Privately-owned
Owner: COLDSPRING AIRPORT LLC
N1190 COUNTY ROAD N
WHITEWATER, WI 53190
Phone (920) 723-1556
Manager: MARCUS TINCHER
532 W MAIN ST
WHITEWATER, WI 53190
Phone (920) 723-1556
EMAIL ADDRESS: MARCUSTINCHER@TINCHERREALTY.COM (ALL LOWER CASE)

Airport Operational Statistics

Aircraft based on the field: 4
Single engine airplanes: 2
Ultralights: 2
    
Aircraft operations: avg 57/week *
73% local general aviation
27% transient general aviation
* for 12-month period ending 09 June 2022

Additional Remarks

A51-36 DTHR MKD WITH YELLOW CONES.
RY 18/36 NOT PLOWED WINTERS. CLSD TO WHEELED ACFT WHEN RY SNOW COVERED.
EXTENSIVE ULTRALIGHT & HANG GLDR OPNS ON & INVOF.
FOR CD CTC CHICAGO ARTCC AT 630-906-8921.

Instrument Procedures

There are no published instrument procedures at 5Y3.

Some nearby airports with instrument procedures:

61C - Fort Atkinson Municipal Airport (7 nm N)
57C - East Troy Municipal Airport (17 nm E)
KJVL - Southern Wisconsin Regional Airport (19 nm SW)
KRYV - Watertown Municipal Airport (19 nm N)
C02 - Grand Geneva Resort Airport (22 nm SE)
 
Loc | Ops | Rwys | IFR | FBO | Links
Com | Nav | Svcs | Stats | Notes
Area around 5Y3 (Gutzmer's Twin Oaks Airport)
 
Road maps at: MapQuest Bing Google
 
Aerial photo
WARNING: Photo may not be current or correct
Aerial photo of 5Y3 (Gutzmer's Twin Oaks Airport)
Do you have a better or more recent aerial photo of Gutzmer's Twin Oaks Airport that you would like to share? If so, please send us your photo.

 
Sectional chart

 
Airport distance calculator
Flying to Gutzmer's Twin Oaks Airport? Find the distance to fly.

From to 5Y3

Sunrise and sunset
Times for 30-Nov-2022
 Local
(UTC-6)
 Zulu
(UTC)
Morning civil twilight06:3412:34
Sunrise07:0613:06
Sunset16:2122:21
Evening civil twilight16:5322:53

Current date and time
Zulu (UTC)  30-Nov-2022 16:13:44
Local (UTC-6)  30-Nov-2022 10:13:44
 
METAR
K57C 
17nm E 
301555Z AUTO 27014G24KT 10SM OVC022 M04/M09 A2992 RMK AO2 T10451090
KJVL 
18nm SW 
301545Z 28021G31KT 10SM OVC024 M04/M09 A2996
KRYV 
19nm N 
301555Z AUTO 25014G20KT 10SM OVC024 M04/M10 A2990 RMK AO2 T10451102
KBUU 
23nm SE 
301555Z AUTO 25011G21KT 10SM OVC024 M04/M09 A2994 RMK AO2 T10421089 PWINO
KUES 
29nm E 
301545Z 27015G23KT 10SM OVC024 M05/M09 A2990
KMSN 
31nm NW 
301553Z 28008G23KT 9SM -SN OVC026 M04/M10 A2992 RMK AO2 SLP143 P0000 T10441100
KUNU 
34nm N 
301555Z AUTO 26013G23KT 10SM -SN OVC026 M05/M09 A2989 RMK AO2 T10481093
TAF
KJVL 
18nm SW 
301120Z 3012/0112 29018G26KT P6SM OVC026 FM301700 27022G31KT P6SM BKN045 FM010000 28018G29KT P6SM SCT250 FM010500 28011G21KT P6SM SKC
NOTAMs
Click for the latest NOTAMs
NOTAMs are issued by the DoD/FAA and will open in a separate window not controlled by AirNav.

 

 
 

Would you like to see your business listed on this page?

 If your business provides an interesting product or service to pilots, flight crews, aircraft, or users of the Gutzmer's Twin Oaks Airport, you should consider listing it here.  To start the listing process, click on the button below
 
Add a business
 

Other Pages about Gutzmer's Twin Oaks Airport

Page from the Wisconsin airport directory (PDF)
 
Update a link
 
Copyright © AirNav, LLC. All rights reserved. Privacy Policy  Contact